KO6TH-15 Weather Reports


time (UTC)temp
C
wind
direction
speed
KPH
gust
KPH
rain 1hr
cm
rain 24hr
cm
rain mn
cm
humidity
%
barometer
mb
20260831022445 27 0 0.0 0.0 0.00 0.00 0.00 40
20260831021415 27 0 0.0 0.0 0.00 0.00 0.00 37
20260831020345 28 0 1.6 0.0 0.00 0.00 0.00 35
20260831015345 28 0 1.6 0.0 0.00 0.00 0.00 32
20260831014315 29 0 4.8 0.0 0.00 0.00 0.00 32
20260831013315 30 0 1.6 0.0 0.00 0.00 0.00 31
20260831012245 30 0 1.6 0.0 0.00 0.00 0.00 30
20260831011215 30 0 3.2 0.0 0.00 0.00 0.00 30
20260831010215 31 0 3.2 0.0 0.00 0.00 0.00 30
20260831005215 31 0 1.6 0.0 0.00 0.00 0.00 29
20260831004145 31 0 4.8 0.0 0.00 0.00 0.00 29
20260831003145 32 0 8.0 0.0 0.00 0.00 0.00 28
20260831002145 32 0 3.2 0.0 0.00 0.00 0.00 27
20260831001115 34 0 1.6 0.0 0.00 0.00 0.00 27
20260831000045 35 0 1.6 0.0 0.00 0.00 0.00 26
20260830235015 35 0 6.4 0.0 0.00 0.00 0.00 26
20260830233945 36 0 3.2 0.0 0.00 0.00 0.00 25
20260830232915 35 0 8.0 0.0 0.00 0.00 0.00 26
20260830231845 36 0 3.2 0.0 0.00 0.00 0.00 25
20260830230845 35 0 8.0 0.0 0.00 0.00 0.00 26
20260830225845 35 0 4.8 0.0 0.00 0.00 0.00 27
20260830224815 35 0 3.2 0.0 0.00 0.00 0.00 27
20260830223815 35 0 3.2 0.0 0.00 0.00 0.00 27
20260830222745 35 0 4.8 0.0 0.00 0.00 0.00 28
20260830221745 35 0 6.4 0.0 0.00 0.00 0.00 29
20260830220715 33 0 6.4 0.0 0.00 0.00 0.00 29
20260830215645 34 0 4.8 0.0 0.00 0.00 0.00 30
20260830214615 35 0 6.4 0.0 0.00 0.00 0.00 30
20260830213545 33 0 6.4 0.0 0.00 0.00 0.00 30
20260830212515 34 0 3.2 0.0 0.00 0.00 0.00 30
20260830211515 35 0 4.8 0.0 0.00 0.00 0.00 28
20260830210515 34 0 6.4 0.0 0.00 0.00 0.00 29
20260830205445 34 0 9.7 0.0 0.00 0.00 0.00 30
20260830204445 33 0 4.8 0.0 0.00 0.00 0.00 31
20260830203445 33 0 3.2 0.0 0.00 0.00 0.00 30
20260830202415 32 0 1.6 0.0 0.00 0.00 0.00 32
20260830201345 31 0 8.0 0.0 0.00 0.00 0.00 32
20260830200315 32 0 3.2 0.0 0.00 0.00 0.00 32
20260830195315 32 0 3.2 0.0 0.00 0.00 0.00 32
20260830194315 32 0 6.4 0.0 0.00 0.00 0.00 33
20260830193245 31 0 3.2 0.0 0.00 0.00 0.00 33
20260830192215 31 0 4.8 0.0 0.00 0.00 0.00 33
20260830191145 30 0 8.0 0.0 0.00 0.00 0.00 34
20260830190145 30 0 6.4 0.0 0.00 0.00 0.00 35
20260830185145 29 0 8.0 0.0 0.00 0.00 0.00 36
20260830184115 28 0 6.4 0.0 0.00 0.00 0.00 37
20260830183045 29 0 1.6 0.0 0.00 0.00 0.00 36
20260830182045 29 0 3.2 0.0 0.00 0.00 0.00 37
20260830181045 29 0 0.0 0.0 0.00 0.00 0.00 37
20260830180015 27 0 3.2 0.0 0.00 0.00 0.00 38
20260830174945 26 0 4.8 0.0 0.00 0.00 0.00 39
20260830173915 25 0 4.8 0.0 0.00 0.00 0.00 40
20260830172845 25 0 3.2 0.0 0.00 0.00 0.00 39
20260830171815 23 0 3.2 0.0 0.00 0.00 0.00 42
20260830170745 23 0 1.6 0.0 0.00 0.00 0.00 44
20260830165715 22 0 1.6 0.0 0.00 0.00 0.00 44
20260830164645 22 0 8.0 0.0 0.00 0.00 0.00 44
20260830163645 22 0 3.2 0.0 0.00 0.00 0.00 45
20260830162645 21 0 3.2 0.0 0.00 0.00 0.00 46
20260830161645 21 0 3.2 0.0 0.00 0.00 0.00 46
20260830160645 22 0 3.2 0.0 0.00 0.00 0.00 46
20260830155645 21 0 3.2 0.0 0.00 0.00 0.00 50
20260830154615 19 0 3.2 0.0 0.00 0.00 0.00 54
20260830153615 17 0 1.6 0.0 0.00 0.00 0.00 59
20260830152545 16 0 0.0 0.0 0.00 0.00 0.00 63
20260830151515 14 0 0.0 0.0 0.00 0.00 0.00 73
20260830150515 13 0 0.0 0.0 0.00 0.00 0.00 76
20260830145515 12 0 0.0 0.0 0.00 0.00 0.00 78
20260830144515 11 0 0.0 0.0 0.00 0.00 0.00 82
20260830143445 10 0 0.0 0.0 0.00 0.00 0.00 89
20260830142445 9 0 0.0 0.0 0.00 0.00 0.00 90
20260830141415 8 0 0.0 0.0 0.00 0.00 0.00 88
20260830140415 8 0 0.0 0.0 0.00 0.00 0.00 87
20260830135415 8 0 0.0 0.0 0.00 0.00 0.00 87
20260830134415 8 0 0.0 0.0 0.00 0.00 0.00 87
20260830133345 9 0 0.0 0.0 0.00 0.00 0.00 86
20260830132345 9 0 0.0 0.0 0.00 0.00 0.00 87
20260830131345 9 0 0.0 0.0 0.00 0.00 0.00 86
20260830130345 9 0 0.0 0.0 0.00 0.00 0.00 85
20260830125345 9 0 0.0 0.0 0.00 0.00 0.00 85
20260830124315 10 0 0.0 0.0 0.00 0.00 0.00 84
20260830123315 10 0 0.0 0.0 0.00 0.00 0.00 83
20260830122315 10 0 0.0 0.0 0.00 0.00 0.00 82
20260830121315 10 0 0.0 0.0 0.00 0.00 0.00 83
20260830120245 10 0 0.0 0.0 0.00 0.00 0.00 81
20260830115245 10 0 0.0 0.0 0.00 0.00 0.00 80
20260830114215 10 0 0.0 0.0 0.00 0.00 0.00 79
20260830113145 10 0 0.0 0.0 0.00 0.00 0.00 78
20260830112115 11 0 0.0 0.0 0.00 0.00 0.00 76
20260830111045 11 0 0.0 0.0 0.00 0.00 0.00 76
20260830110045 11 0 1.6 0.0 0.00 0.00 0.00 78
20260830105045 11 0 0.0 0.0 0.00 0.00 0.00 76
20260830104045 11 0 0.0 0.0 0.00 0.00 0.00 77
20260830103015 11 0 0.0 0.0 0.00 0.00 0.00 76
20260830102015 12 0 0.0 0.0 0.00 0.00 0.00 74
20260830100945 12 0 0.0 0.0 0.00 0.00 0.00 74
20260830095915 12 0 1.6 0.0 0.00 0.00 0.00 74
20260830094915 12 0 0.0 0.0 0.00 0.00 0.00 74
20260830093915 12 0 0.0 0.0 0.00 0.00 0.00 73
20260830092915 12 0 0.0 0.0 0.00 0.00 0.00 73
20260830091845 12 0 0.0 0.0 0.00 0.00 0.00 72
20260830090845 12 0 0.0 0.0 0.00 0.00 0.00 71
20260830085845 13 0 0.0 0.0 0.00 0.00 0.00 73
20260830084849 13 0 0.0 0.0 0.00 0.00 0.00
20260830084845 13 0 0.0 0.0 0.00 0.00 0.00 71
20260830083815 13 0 0.0 0.0 0.00 0.00 0.00 69
20260830082745 13 0 0.0 0.0 0.00 0.00 0.00 69
20260830081745 13 0 0.0 0.0 0.00 0.00 0.00 67
20260830080745 13 0 0.0 0.0 0.00 0.00 0.00 66
20260830075715 13 0 0.0 0.0 0.00 0.00 0.00 71
20260830074715 13 0 0.0 0.0 0.00 0.00 0.00 72
20260830073645 13 0 0.0 0.0 0.00 0.00 0.00 72
20260830072615 13 0 0.0 0.0 0.00 0.00 0.00 71
20260830071615 13 0 0.0 0.0 0.00 0.00 0.00 70
20260830070545 14 0 0.0 0.0 0.00 0.00 0.00 70
20260830065545 14 0 0.0 0.0 0.00 0.00 0.00 67
20260830064515 15 0 0.0 0.0 0.00 0.00 0.00 67
20260830063515 15 0 0.0 0.0 0.00 0.00 0.00 68
20260830062515 15 0 0.0 0.0 0.00 0.00 0.00 66
20260830061515 15 0 0.0 0.0 0.00 0.00 0.00 66
20260830060445 15 0 0.0 0.0 0.00 0.00 0.00 66
20260830055445 15 0 0.0 0.0 0.00 0.00 0.00 66
20260830054415 16 0 0.0 0.0 0.00 0.00 0.00 66
20260830053415 16 0 0.0 0.0 0.00 0.00 0.00 63
20260830052345 16 0 0.0 0.0 0.00 0.00 0.00 62
20260830051345 17 0 0.0 0.0 0.00 0.00 0.00 61
20260830050417 17 0 0.0 0.0 0.00 0.00 0.00 60
20260830050345 17 0 0.0 0.0 0.00 0.00 0.00 60
20260830045315 17 0 0.0 0.0 0.00 0.00 0.00 61
20260830044315 18 0 0.0 0.0 0.00 0.00 0.00 58
20260830043245 18 0 0.0 0.0 0.00 0.00 0.00 56
20260830042215 18 0 0.0 0.0 0.00 0.00 0.00 52
20260830041215 19 0 1.6 0.0 0.00 0.00 0.00 52
20260830040145 20 0 0.0 0.0 0.00 0.00 0.00 50
20260830035218 20 0 0.0 0.0 0.00 0.00 0.00 48
20260830035145 20 0 0.0 0.0 0.00 0.00 0.00 48
20260830034145 21 0 0.0 0.0 0.00 0.00 0.00 47
20260830033115 21 0 0.0 0.0 0.00 0.00 0.00 45
20260830032045 22 0 0.0 0.0 0.00 0.00 0.00 43
20260830031015 23 0 0.0 0.0 0.00 0.00 0.00 41
20260830025945 23 0 1.6 0.0 0.00 0.00 0.00 40
20260830024915 25 0 0.0 0.0 0.00 0.00 0.00 38
20260830023845 26 0 1.6 0.0 0.00 0.00 0.00 37
20260830022845 26 0 1.6 0.0 0.00 0.00 0.00 33